Flag for Martinique Weather past 2 weeks in Fort-de-France, Martinique

79 °F


Feels Like: 82 °F
Forecast: 78 / 88 °F
Wind: 6 mph from Southeast

Location: Le Lamentin Airport

Current Time: Dec 1, 2015 at 12:02:28 AM

Latest Report: Nov 30, 2015 at 11:30 PM

Visibility: N/A

Pressure: 29.92 "Hg

Humidity: 89%

Dew point: 75 °F

Location of Fort-de-FranceLocation

Historic Weather in Fort-de-France — Graph


Fort-de-France temperature yesterday

Maximum temperature yesterday: 86 °F (at 10:00 AM)
Minimum temperature yesterday: 77 °F (at 2:30 AM)
Average temperature yesterday: 82 °F

Past Weeks' High & Low Weather Summary

High88 °F (Nov 16, 10:30 AM)100% (Nov 20, 6:00 AM)29.98 "Hg (Nov 20, 6:00 AM)
Low72 °F (Nov 20, 6:00 AM)55% (Nov 18, 11:30 AM)29.77 "Hg (Nov 20, 2:30 PM)
Average81 °F78%29.89 "Hg
* Reported Nov 15 10:00 PM — Nov 30 10:30 PM, Fort-de-France, Weather by CustomWeather, © 2015

Note: Actual official high and low records may vary slightly from our data, if they occured in-between our weather recording intervals... More about our weather records


Fort-de-France weather history for previous 24 hours

Time TempWeatherWind HumidityBarometerVisibility
10:30 PM
Mon, Nov 30
79 °FPartly cloudy.5 mph89%29.92 "HgN/A
10:00 PM81 °FOvercast.5 mph84%29.92 "HgN/A
9:00 PM81 °FOvercast.5 mph84%29.92 "HgN/A
8:00 PM81 °FPartly cloudy.9 mph89%29.89 "HgN/A
7:30 PM79 °FLight rain. Passing clouds.10 mph94%29.89 "HgN/A
7:00 PM81 °FMostly cloudy.9 mph89%29.86 "HgN/A
6:30 PM81 °FMostly cloudy.7 mph89%29.86 "HgN/A
6:00 PM81 °FMostly cloudy.9 mph89%29.86 "HgN/A
5:30 PM82 °FPartly sunny.7 mph84%29.86 "HgN/A
5:00 PM82 °FPartly sunny.7 mph79%29.86 "HgN/A
4:30 PM82 °FMostly cloudy.6 mph84%29.83 "HgN/A
4:00 PM82 °FPartly sunny.6 mph84%29.83 "HgN/A
3:30 PM86 °FPartly sunny.6 mph70%29.83 "HgN/A
3:00 PM86 °FPartly sunny.12 mph70%29.83 "HgN/A
2:30 PM84 °FMostly cloudy.8 mph79%29.83 "HgN/A
2:00 PM81 °FFog.10 mph89%29.83 "Hg2 mi
1:30 PM81 °FMostly cloudy.14 mph89%29.86 "HgN/A
1:00 PM84 °FPartly sunny.17 mph79%29.86 "HgN/A
12:30 PM84 °FPartly sunny.17 mph79%29.89 "HgN/A
12:00 PM84 °FScattered clouds.17 mph74%29.89 "HgN/A
11:30 AM84 °FClear.16 mph70%29.92 "HgN/A
11:00 AM84 °FPartly sunny.17 mph74%29.92 "HgN/A
10:30 AM82 °FLight rain. Mostly cloudy.14 mph79%29.95 "HgN/A
10:00 AM86 °FMostly cloudy.16 mph70%29.95 "HgN/A
9:30 AM84 °FPartly sunny.14 mph70%29.95 "HgN/A
9:00 AM84 °FBroken clouds.15 mph70%29.95 "HgN/A
8:30 AM82 °FPartly sunny.15 mph74%29.95 "HgN/A
8:00 AM82 °FPartly sunny.12 mph74%29.92 "HgN/A
7:30 AM81 °FPartly sunny.13 mph79%29.92 "HgN/A
7:00 AM81 °FBroken clouds.12 mph79%29.89 "HgN/A
6:30 AM81 °FBroken clouds.10 mph79%29.89 "HgN/A
6:00 AM81 °FPartly cloudy.13 mph79%29.86 "HgN/A
5:30 AM81 °FPassing clouds.12 mph79%29.86 "HgN/A
5:00 AM81 °FPassing clouds.12 mph79%29.86 "HgN/A
4:30 AM79 °FOvercast.9 mph89%29.86 "HgN/A
3:00 AM77 °FPartly cloudy.5 mph89%29.86 "HgN/A
2:30 AM77 °FPartly cloudy.12 mph89%29.86 "HgN/A
2:00 AM79 °FPartly cloudy.5 mph84%29.89 "HgN/A
1:30 AM79 °FPassing clouds.8 mph84%29.89 "HgN/A
1:00 AM79 °FLight rain. Partly cloudy.13 mph84%29.92 "HgN/A
12:30 AM81 °FPassing clouds.8 mph79%29.92 "HgN/A
Weather by CustomWeather, © 2015

See weather overviewHow to use our weather pages